Location: Newark
(49.2167°N, 0.8667°E)
Time: 07:32:56
(UTC+00:00)

Envisat - Visible Passes

Search period start: 13 November 2019 00:00
Search period end: 23 November 2019 00:00
Orbit: 764 x 766 km, 98.1° (Epoch: 12 November)

Date Brightness Start Highest point End Pass type
(mag) Time Alt. Az. Time Alt. Az. Time Alt. Az.
13 Nov 4.6 06:22:55 10° NNE 06:27:44 41° E 06:32:31 10° SSE visible
13 Nov 2.9 17:41:24 10° SSE 17:46:29 81° ENE 17:51:35 10° NNW visible
13 Nov 5.9 19:23:08 10° SW 19:26:09 16° W 19:29:10 10° NW visible
14 Nov 5.8 05:46:51 10° NE 05:50:39 21° E 05:54:26 10° SE visible
14 Nov 3.4 17:05:07 10° SE 17:09:52 41° ENE 17:14:36 10° N visible
14 Nov 4.8 18:44:29 10° SSW 18:48:58 31° W 18:53:29 10° NNW visible
15 Nov 3.5 18:06:58 10° S 18:12:00 63° WSW 18:17:04 10° NNW visible
16 Nov 5.0 06:11:47 10° NNE 06:16:24 33° E 06:20:58 10° SSE visible
16 Nov 2.9 17:30:13 10° SSE 17:35:14 66° ENE 17:40:17 10° N visible
16 Nov 5.6 19:11:08 10° SW 19:14:44 19° W 19:18:21 10° NW visible
17 Nov 6.0 05:35:59 10° NE 05:39:14 17° E 05:42:30 10° SE visible
17 Nov 3.6 16:54:08 10° SE 16:58:39 34° ENE 17:03:12 10° N visible
17 Nov 4.4 18:32:54 10° SSW 18:37:37 38° W 18:42:22 10° NNW visible
18 Nov 3.9 06:37:01 10° NNE 06:42:03 55° E 06:47:01 10° S visible
18 Nov 3.1 17:55:38 10° S 18:00:43 77° WSW 18:05:50 10° NNW visible
18 Nov 6.2 19:38:59 10° WSW 19:40:36 11° W 19:42:13 10° WNW visible
19 Nov 5.3 06:00:42 10° NE 06:05:02 27° E 06:09:20 10° SSE visible
19 Nov 3.1 17:19:04 10° SE 17:23:59 54° ENE 17:28:57 10° N visible
19 Nov 5.3 18:59:18 10° SW 19:03:20 24° W 19:07:24 10° NW visible
20 Nov 6.1 05:25:18 10° NE 05:27:49 14° E 05:30:20 10° ESE visible
20 Nov 3.8 16:43:11 10° ESE 16:47:28 28° ENE 16:51:46 10° N visible
20 Nov 4.0 18:21:24 10° S 18:26:17 47° W 18:31:12 10° NNW visible
21 Nov 4.4 06:25:50 10° NNE 06:30:43 45° E 06:35:34 10° S visible
21 Nov 2.9 17:44:21 10° SSE 17:49:26 87° ENE 17:54:33 10° NNW visible
21 Nov 5.9 19:26:27 10° WSW 19:29:09 14° W 19:31:53 10° NW visible
22 Nov 5.7 05:49:41 10° NE 05:53:39 22° E 05:57:36 10° SE visible
22 Nov 3.3 17:07:58 10° SE 17:12:47 44° ENE 17:17:35 10° N visible
22 Nov 4.9 18:47:35 10° SSW 18:51:58 29° W 18:56:22 10° NW visible
